Content
SEND FEEDBACK

Daily
Averages
Monthly
Summary
France

OISSEL, FRANCE


Home > Europe > France
Elevation: 515 feet     Latitude: 49 22N     Longitude: 001 10E

WEATHER
 
SELECT A DAY
Number of Records: 182,658;   Date Range: 7/1/96 - 11/24/14
 
SHARE

PRINT THIS DATA

[ ← Previous Day ]
WEATHER ALMANAC - JANUARY 6, 2013
[ Next Day → ]
[ °C ]   °F
Weather ElementAverageHighLow
Temperature43 °F44.6 °F (12:00 pm)41 °F (10:00 pm)
Dewpoint41.2 °F43 °F (1:00 am)39.2 °F (3:00 pm)
Humidity93 %100 % (12:30 am)81 % (3:00 pm)
Barometer30.52 in30.61 in (1:00 am)30.45 in (7:00 pm)
Wind Speed4.7 mph9.2 mph (10:00 pm)
Weather ElementAverage
Visibility3.6 mi
Wind DirectionSSE (170 °)

Weather ElementTotal
Precipitation---
Heating Degree Days22.2 (Base 65)
Averaged from 51 records on January 6, 2013
WEATHER CONDITIONS BREAKOUT
WIND DIRECTION BREAKOUT
WEATHER BY HOUR - JANUARY 6, 2013
[ °C ]   °F
Local TimeTemperatureDewpointHumidityBarometerVisibilityWind DirectionWind SpeedGust SpeedPrecipitationEventsConditions
12:30 AM42.8 °F42.8 °F100 %30.57 in1.2 miWest (280°)5.8 mphOvercast
1:00 AM44.0 °F43.0 °F94 %30.61 in1.0 miWNW (290°)5.8 mphMist
1:00 AM42.8 °F42.8 °F100 %30.57 in0.7 miWNW (290°)5.8 mphOvercast
1:30 AM42.8 °F42.8 °F100 %30.57 in0.8 miWest (260°)5.8 mphOvercast
2:00 AM42.8 °F42.8 °F100 %30.57 inWest (260°)6.9 mphFogFog
2:30 AM42.8 °F42.8 °F100 %30.57 in0.2 miSW (230°)5.8 mphFogFog
3:00 AM42.8 °F42.8 °F100 %30.57 in0.2 miSW (230°)5.8 mphFogFog
3:30 AM42.8 °F42.8 °F100 %30.54 in0.2 miWSW (240°)5.8 mphFogFog
4:00 AM42.8 °F42.8 °F100 %30.54 in0.3 miSW (230°)5.8 mphFogFog
4:30 AM42.8 °F42.8 °F100 %30.54 in0.4 miSW (230°)5.8 mphFogFog
5:00 AM42.8 °F41.0 °F93 %30.54 in0.5 miWSW (240°)5.8 mphFogFog
5:30 AM42.8 °F41.0 °F93 %30.54 in0.8 miWSW (240°)5.8 mphMist
6:00 AM42.8 °F41.0 °F93 %30.54 in0.4 miWSW (250°)5.8 mphFogFog
6:30 AM42.8 °F41.0 °F93 %30.54 inWSW (240°)4.6 mphFogFog
7:00 AM42.0 °F42.0 °F99 %30.56 in0.0 miWest (270°)5.8 mphFogHeavy Fog
7:00 AM42.8 °F41.0 °F93 %30.54 in0.3 miWest (270°)5.8 mphFogFog
7:30 AM42.8 °F41.0 °F93 %30.54 in0.6 miWSW (250°)4.6 mphFogFog
8:00 AM42.8 °F41.0 °F93 %30.54 inWest (260°)4.6 mphFogFog
8:30 AM42.8 °F41.0 °F93 %30.54 in0.2 miWest (260°)3.5 mphFogFog
9:00 AM42.8 °F41.0 °F93 %30.54 inVariable1.2 mphFogFog
9:30 AM42.8 °F42.8 °F100 %30.54 in1.2 miVariable3.5 mphOvercast
10:00 AM42.8 °F42.8 °F100 %30.54 in1.0 miVariable1.2 mphOvercast
10:30 AM42.8 °F42.8 °F100 %30.54 in3.1 miVariable1.2 mphOvercast
11:00 AM42.8 °F42.8 °F100 %30.54 inWSW (240°)3.5 mphOvercast
11:30 AM42.8 °F42.8 °F100 %30.54 in4.3 miSW (230°)3.5 mphOvercast
12:00 PM44.6 °F42.8 °F93 %30.54 in6.2 miVariable3.5 mphOvercast
12:30 PM42.8 °F41.0 °F93 %30.54 in4.3 miSW (230°)3.5 mphOvercast
1:00 PM44.0 °F42.0 °F88 %30.55 in4.0 miWSW (250°)3.5 mphPartly Cloudy
1:00 PM44.6 °F41.0 °F87 %30.51 in4.3 miWSW (250°)4.6 mphOvercast
1:30 PM44.6 °F41.0 °F87 %30.51 in4.3 miSW (230°)3.5 mphOvercast
2:00 PM44.6 °F41.0 °F87 %30.51 in3.7 miVariable2.3 mphOvercast
2:30 PM44.6 °F41.0 °F87 %30.51 in6.2 miVariable1.2 mphOvercast
3:00 PM44.6 °F39.2 °F81 %30.51 in6.2 miCalmOvercast
3:30 PM44.6 °F41.0 °F87 %30.48 in6.2 miSouth (180°)2.3 mphOvercast
4:00 PM44.6 °F41.0 °F87 %30.48 in6.2 miVariable3.5 mphOvercast
4:30 PM42.8 °F41.0 °F93 %30.48 in6.2 miVariable3.5 mphOvercast
5:00 PM42.8 °F39.2 °F87 %30.48 in5.6 miVariable3.5 mphOvercast
5:30 PM42.8 °F39.2 °F87 %30.48 in6.2 miSSE (160°)3.5 mphOvercast
6:00 PM42.8 °F39.2 °F87 %30.48 in6.2 miVariable3.5 mphOvercast
6:30 PM42.8 °F41.0 °F93 %30.48 in5.6 miSouth (170°)3.5 mphOvercast
7:00 PM43.0 °F40.0 °F85 %30.49 in7.0 miSouth (180°)4.6 mphClear
7:00 PM42.8 °F41.0 °F93 %30.45 in6.2 miSouth (170°)4.6 mphOvercast
7:30 PM42.8 °F39.2 °F87 %30.45 in6.2 miSSE (160°)5.8 mphOvercast
8:00 PM42.8 °F39.2 °F87 %30.45 in6.2 miSouth (170°)6.9 mphOvercast
8:30 PM42.8 °F41.0 °F93 %30.45 in6.2 miSouth (170°)5.8 mphOvercast
9:00 PM42.8 °F39.2 °F87 %30.45 in6.2 miSouth (170°)8.1 mphOvercast
9:30 PM42.8 °F39.2 °F87 %30.45 in6.2 miSouth (180°)6.9 mphOvercast
10:00 PM41.0 °F39.2 °F93 %30.45 in6.2 miSSE (160°)9.2 mphOvercast
10:30 PM41.0 °F39.2 °F93 %30.45 in5.6 miSouth (190°)6.9 mphOvercast
11:00 PM41.0 °F39.2 °F93 %30.45 in4.3 miSouth (180°)6.9 mphOvercast
11:30 PM41.0 °F39.2 °F93 %30.45 in5.0 miSouth (180°)6.9 mphOvercast
Hourly data recorded from LFOP, located miles away from Oissel, France







STORIES FROM OUR PARTNERS